Year,Month,Day,Hour,Minute,Value (Times are PST for temperature in C)
2016,05,20,00,00,7.80
2016,05,20,00,01,7.80
2016,05,20,00,02,7.80
2016,05,20,00,03,7.70
2016,05,20,00,04,7.70
2016,05,20,00,05,7.70
2016,05,20,00,06,7.70
2016,05,20,00,07,7.70
2016,05,20,00,08,7.70
2016,05,20,00,09,7.70
2016,05,20,00,10,7.70
2016,05,20,00,11,7.70
2016,05,20,00,12,7.70
2016,05,20,00,13,7.70
2016,05,20,00,14,7.70
2016,05,20,00,15,7.70
2016,05,20,00,16,7.70
2016,05,20,00,17,7.70
2016,05,20,00,18,7.70
2016,05,20,00,19,7.70
2016,05,20,00,20,7.70
2016,05,20,00,21,7.70
2016,05,20,00,22,7.70
2016,05,20,00,23,7.70
2016,05,20,00,24,7.70
2016,05,20,00,25,7.70
2016,05,20,00,26,7.70
2016,05,20,00,27,7.60
2016,05,20,00,28,7.60
2016,05,20,00,29,7.60
2016,05,20,00,30,7.60
2016,05,20,00,31,7.60
2016,05,20,00,32,7.60
2016,05,20,00,33,7.60
2016,05,20,00,34,7.60
2016,05,20,00,35,7.60
2016,05,20,00,36,7.60
2016,05,20,00,37,7.60
2016,05,20,00,38,7.60
2016,05,20,00,39,7.60
2016,05,20,00,40,7.60
2016,05,20,00,41,7.60
2016,05,20,00,42,7.60
2016,05,20,00,43,7.60
2016,05,20,00,44,7.60
2016,05,20,00,45,7.60
2016,05,20,00,46,7.60
2016,05,20,00,47,7.60
2016,05,20,00,48,7.60
2016,05,20,00,49,7.60
2016,05,20,00,50,7.60
2016,05,20,00,51,7.60
2016,05,20,00,52,7.60
2016,05,20,00,53,7.60
2016,05,20,00,54,7.60
2016,05,20,00,55,7.50
2016,05,20,00,56,7.50
2016,05,20,00,57,7.50
2016,05,20,00,58,7.60
2016,05,20,00,59,7.50
2016,05,20,01,00,7.50
2016,05,20,01,01,7.50
2016,05,20,01,02,7.50
2016,05,20,01,03,7.50
2016,05,20,01,04,7.50
2016,05,20,01,05,7.50
2016,05,20,01,06,7.50
2016,05,20,01,07,7.50
2016,05,20,01,08,7.50
2016,05,20,01,09,7.50
2016,05,20,01,10,7.40
2016,05,20,01,11,7.40
2016,05,20,01,12,7.40
2016,05,20,01,13,7.40
2016,05,20,01,14,7.40
2016,05,20,01,15,7.40
2016,05,20,01,16,7.40
2016,05,20,01,17,7.40
2016,05,20,01,18,7.40
2016,05,20,01,19,7.40
2016,05,20,01,20,7.40
2016,05,20,01,21,7.40
2016,05,20,01,22,7.40
2016,05,20,01,23,7.40
2016,05,20,01,24,7.40
2016,05,20,01,25,7.40
2016,05,20,01,26,7.40
2016,05,20,01,27,7.40
2016,05,20,01,28,7.40
2016,05,20,01,29,7.40
2016,05,20,01,30,7.40
2016,05,20,01,31,7.30
2016,05,20,01,32,7.30
2016,05,20,01,33,7.30
2016,05,20,01,34,7.30
2016,05,20,01,35,7.30
2016,05,20,01,36,7.30
2016,05,20,01,37,7.30
2016,05,20,01,38,7.30
2016,05,20,01,39,7.30
2016,05,20,01,40,7.30
2016,05,20,01,41,7.30
2016,05,20,01,42,7.30
2016,05,20,01,43,7.30
2016,05,20,01,44,7.30
2016,05,20,01,45,7.30
2016,05,20,01,46,7.30
2016,05,20,01,47,7.30
2016,05,20,01,48,7.30
2016,05,20,01,49,7.30
2016,05,20,01,50,7.30
2016,05,20,01,51,7.30
2016,05,20,01,52,7.30
2016,05,20,01,53,7.30
2016,05,20,01,54,7.30
2016,05,20,01,55,7.20
2016,05,20,01,56,7.20
2016,05,20,01,57,7.20
2016,05,20,01,58,7.20
2016,05,20,01,59,7.20
2016,05,20,02,00,7.20
2016,05,20,02,01,7.20
2016,05,20,02,02,7.20
2016,05,20,02,03,7.20
2016,05,20,02,04,7.20
2016,05,20,02,05,7.20
2016,05,20,02,06,7.20
2016,05,20,02,07,7.20
2016,05,20,02,08,7.20
2016,05,20,02,09,7.20
2016,05,20,02,10,7.20
2016,05,20,02,11,7.20
2016,05,20,02,12,7.20
2016,05,20,02,13,7.20
2016,05,20,02,14,7.20
2016,05,20,02,15,7.20
2016,05,20,02,16,7.20
2016,05,20,02,17,7.20
2016,05,20,02,18,7.20
2016,05,20,02,19,7.20
2016,05,20,02,20,7.20
2016,05,20,02,21,7.20
2016,05,20,02,22,7.20
2016,05,20,02,23,7.20
2016,05,20,02,24,7.20
2016,05,20,02,25,7.20
2016,05,20,02,26,7.20
2016,05,20,02,27,7.20
2016,05,20,02,28,7.20
2016,05,20,02,29,7.20
2016,05,20,02,30,7.20
2016,05,20,02,31,7.20
2016,05,20,02,32,7.20
2016,05,20,02,33,7.20
2016,05,20,02,34,7.20
2016,05,20,02,35,7.20
2016,05,20,02,36,7.20
2016,05,20,02,37,7.20
2016,05,20,02,38,7.20
2016,05,20,02,39,7.20
2016,05,20,02,40,7.20
2016,05,20,02,41,7.20
2016,05,20,02,42,7.20
2016,05,20,02,43,7.20
2016,05,20,02,44,7.20
2016,05,20,02,45,7.20
2016,05,20,02,46,7.30
2016,05,20,02,47,7.30
2016,05,20,02,48,7.30
2016,05,20,02,49,7.30
2016,05,20,02,50,7.30
2016,05,20,02,51,7.30
2016,05,20,02,52,7.30
2016,05,20,02,53,7.30
2016,05,20,02,54,7.30
2016,05,20,02,55,7.30
2016,05,20,02,56,7.30
2016,05,20,02,57,7.20
2016,05,20,02,58,7.30
2016,05,20,02,59,7.20
2016,05,20,03,00,7.20
2016,05,20,03,01,7.30
2016,05,20,03,02,7.30
2016,05,20,03,03,7.30
2016,05,20,03,04,7.30
2016,05,20,03,05,7.30
2016,05,20,03,06,7.30
2016,05,20,03,07,7.30
2016,05,20,03,08,7.30
2016,05,20,03,09,7.30
2016,05,20,03,10,7.30
2016,05,20,03,11,7.30
2016,05,20,03,12,7.30
2016,05,20,03,13,7.30
2016,05,20,03,14,7.30
2016,05,20,03,15,7.30
2016,05,20,03,16,7.30
2016,05,20,03,17,7.30
2016,05,20,03,18,7.30
2016,05,20,03,19,7.30
2016,05,20,03,20,7.30
2016,05,20,03,21,7.30
2016,05,20,03,22,7.30
2016,05,20,03,23,7.30
2016,05,20,03,24,7.30
2016,05,20,03,25,7.30
2016,05,20,03,26,7.30
2016,05,20,03,27,7.30
2016,05,20,03,28,7.30
2016,05,20,03,29,7.30
2016,05,20,03,30,7.30
2016,05,20,03,31,7.30
2016,05,20,03,32,7.30
2016,05,20,03,33,7.30
2016,05,20,03,34,7.30
2016,05,20,03,35,7.30
2016,05,20,03,36,7.30
2016,05,20,03,37,7.40
2016,05,20,03,38,7.40
2016,05,20,03,39,7.40
2016,05,20,03,40,7.40
2016,05,20,03,41,7.40
2016,05,20,03,42,7.40
2016,05,20,03,43,7.40
2016,05,20,03,44,7.40
2016,05,20,03,45,7.40
2016,05,20,03,46,7.40
2016,05,20,03,47,7.40
2016,05,20,03,48,7.40
2016,05,20,03,49,7.40
2016,05,20,03,50,7.40
2016,05,20,03,51,7.40
2016,05,20,03,52,7.40
2016,05,20,03,53,7.40
2016,05,20,03,54,7.40
2016,05,20,03,55,7.40
2016,05,20,03,56,7.40
2016,05,20,03,57,7.40
2016,05,20,03,58,7.40
2016,05,20,03,59,7.40
2016,05,20,04,00,7.40
2016,05,20,04,01,7.40
2016,05,20,04,02,7.50
2016,05,20,04,03,7.50
2016,05,20,04,04,7.50
2016,05,20,04,05,7.50
2016,05,20,04,06,7.50
2016,05,20,04,07,7.50
2016,05,20,04,08,7.50
2016,05,20,04,09,7.50
2016,05,20,04,10,7.50
2016,05,20,04,11,7.50
2016,05,20,04,12,7.50
2016,05,20,04,13,7.50
2016,05,20,04,14,7.50
2016,05,20,04,15,7.50
2016,05,20,04,16,7.50
2016,05,20,04,17,7.50
2016,05,20,04,18,7.50
2016,05,20,04,19,7.50
2016,05,20,04,20,7.50
2016,05,20,04,21,7.50
2016,05,20,04,22,7.50
2016,05,20,04,23,7.50
2016,05,20,04,24,7.50
2016,05,20,04,25,7.50
2016,05,20,04,26,7.50
2016,05,20,04,27,7.50
2016,05,20,04,28,7.50
2016,05,20,04,29,7.50
2016,05,20,04,30,7.50
2016,05,20,04,31,7.60
2016,05,20,04,32,7.60
2016,05,20,04,33,7.60
2016,05,20,04,34,7.60
2016,05,20,04,35,7.60
2016,05,20,04,36,7.60
2016,05,20,04,37,7.60
2016,05,20,04,38,7.70
2016,05,20,04,39,7.70
2016,05,20,04,40,7.70
2016,05,20,04,41,7.70
2016,05,20,04,42,7.70
2016,05,20,04,43,7.70
2016,05,20,04,44,7.70
2016,05,20,04,45,7.70
2016,05,20,04,46,7.70
2016,05,20,04,47,7.60
2016,05,20,04,48,7.60
2016,05,20,04,49,7.60
2016,05,20,04,50,7.60
2016,05,20,04,51,7.60
2016,05,20,04,52,7.60
2016,05,20,04,53,7.60
2016,05,20,04,54,7.70
2016,05,20,04,55,7.60
2016,05,20,04,56,7.60
2016,05,20,04,57,7.60
2016,05,20,04,58,7.60
2016,05,20,04,59,7.70
2016,05,20,05,00,7.70
2016,05,20,05,01,7.70
2016,05,20,05,02,7.70
2016,05,20,05,03,7.60
2016,05,20,05,04,7.70
2016,05,20,05,05,7.60
2016,05,20,05,06,7.60
2016,05,20,05,07,7.60
2016,05,20,05,08,7.60
2016,05,20,05,09,7.60
2016,05,20,05,10,7.60
2016,05,20,05,11,7.60
2016,05,20,05,12,7.60
2016,05,20,05,13,7.60
2016,05,20,05,14,7.60
2016,05,20,05,15,7.60
2016,05,20,05,16,7.70
2016,05,20,05,17,7.70
2016,05,20,05,18,7.70
2016,05,20,05,19,7.70
2016,05,20,05,20,7.70
2016,05,20,05,21,7.70
2016,05,20,05,22,7.70
2016,05,20,05,23,7.70
2016,05,20,05,24,7.70
2016,05,20,05,25,7.70
2016,05,20,05,26,7.70
2016,05,20,05,27,7.70
2016,05,20,05,28,7.70
2016,05,20,05,29,7.70
2016,05,20,05,30,7.70
2016,05,20,05,31,7.70
2016,05,20,05,32,7.70
2016,05,20,05,33,7.70
2016,05,20,05,34,7.70
2016,05,20,05,35,7.70
2016,05,20,05,36,7.70
2016,05,20,05,37,7.70
2016,05,20,05,38,7.70
2016,05,20,05,39,7.70
2016,05,20,05,40,7.70
2016,05,20,05,41,7.70
2016,05,20,05,42,7.70
2016,05,20,05,43,7.70
2016,05,20,05,44,7.70
2016,05,20,05,45,7.70
2016,05,20,05,46,7.70
2016,05,20,05,47,7.70
2016,05,20,05,48,7.70
2016,05,20,05,49,7.70
2016,05,20,05,50,7.70
2016,05,20,05,51,7.70
2016,05,20,05,52,7.70
2016,05,20,05,53,7.80
2016,05,20,05,54,7.80
2016,05,20,05,55,7.80
2016,05,20,05,56,7.80
2016,05,20,05,57,7.80
2016,05,20,05,58,7.80
2016,05,20,05,59,7.80
2016,05,20,06,00,7.80
2016,05,20,06,01,7.80
2016,05,20,06,02,7.80
2016,05,20,06,03,7.80
2016,05,20,06,04,7.80
2016,05,20,06,05,7.80
2016,05,20,06,06,7.80
2016,05,20,06,07,7.80
2016,05,20,06,08,7.80
2016,05,20,06,09,7.80
2016,05,20,06,10,7.80
2016,05,20,06,11,7.80
2016,05,20,06,12,7.90
2016,05,20,06,13,7.90
2016,05,20,06,14,7.90
2016,05,20,06,15,7.90
2016,05,20,06,16,7.90
2016,05,20,06,17,7.90
2016,05,20,06,18,7.90
2016,05,20,06,19,7.90
2016,05,20,06,20,7.90
2016,05,20,06,21,7.90
2016,05,20,06,22,7.90
2016,05,20,06,23,7.90
2016,05,20,06,24,7.90
2016,05,20,06,25,7.90
2016,05,20,06,26,7.90
2016,05,20,06,27,7.90
2016,05,20,06,28,7.90
2016,05,20,06,29,7.90
2016,05,20,06,30,7.90
2016,05,20,06,31,7.90
2016,05,20,06,32,7.90
2016,05,20,06,33,7.90
2016,05,20,06,34,7.90
2016,05,20,06,35,7.90
2016,05,20,06,36,7.90
2016,05,20,06,37,7.90
2016,05,20,06,38,7.90
2016,05,20,06,39,7.90
2016,05,20,06,40,7.90
2016,05,20,06,41,7.90
2016,05,20,06,42,7.90
2016,05,20,06,43,7.90
2016,05,20,06,44,7.90
2016,05,20,06,45,7.90
2016,05,20,06,46,7.90
2016,05,20,06,47,7.90
2016,05,20,06,48,7.90
2016,05,20,06,49,7.90
2016,05,20,06,50,7.90
2016,05,20,06,51,8.00
2016,05,20,06,52,8.00
2016,05,20,06,53,8.00
2016,05,20,06,54,8.00
2016,05,20,06,55,8.00
2016,05,20,06,56,8.00
2016,05,20,06,57,8.00
2016,05,20,06,58,8.00
2016,05,20,06,59,8.10
2016,05,20,07,00,8.10
2016,05,20,07,01,8.10
2016,05,20,07,02,8.10
2016,05,20,07,03,8.10
2016,05,20,07,04,8.10
2016,05,20,07,05,8.10
2016,05,20,07,06,8.10
2016,05,20,07,07,8.10
2016,05,20,07,08,8.20
2016,05,20,07,09,8.20
2016,05,20,07,10,8.20
2016,05,20,07,11,8.20
2016,05,20,07,12,8.20
2016,05,20,07,13,8.20
2016,05,20,07,14,8.20
2016,05,20,07,15,8.20
2016,05,20,07,16,8.20
2016,05,20,07,17,8.20
2016,05,20,07,18,8.20
2016,05,20,07,19,8.20
2016,05,20,07,20,8.20
2016,05,20,07,21,8.20
2016,05,20,07,22,8.20
2016,05,20,07,23,8.20
2016,05,20,07,24,8.20
2016,05,20,07,25,8.20
2016,05,20,07,26,8.20
2016,05,20,07,27,8.20
2016,05,20,07,28,8.20
2016,05,20,07,29,8.20
2016,05,20,07,30,8.20
2016,05,20,07,31,8.20
2016,05,20,07,32,8.20
2016,05,20,07,33,8.20
2016,05,20,07,34,8.20
2016,05,20,07,35,8.20
2016,05,20,07,36,8.20
2016,05,20,07,37,8.20
2016,05,20,07,38,8.20
2016,05,20,07,39,8.20
2016,05,20,07,40,8.30
2016,05,20,07,41,8.30
2016,05,20,07,42,8.30
2016,05,20,07,43,8.30
2016,05,20,07,44,8.30
2016,05,20,07,45,8.30
2016,05,20,07,46,8.30
2016,05,20,07,47,8.30
2016,05,20,07,48,8.30
2016,05,20,07,49,8.40
2016,05,20,07,50,8.40
2016,05,20,07,51,8.40
2016,05,20,07,52,8.40
2016,05,20,07,53,8.40
2016,05,20,07,54,8.40
2016,05,20,07,55,8.40
2016,05,20,07,56,8.50
2016,05,20,07,57,8.50
2016,05,20,07,58,8.60
2016,05,20,07,59,8.60
2016,05,20,08,00,8.60
2016,05,20,08,01,8.60
2016,05,20,08,02,8.60
2016,05,20,08,03,8.60
2016,05,20,08,04,8.70
2016,05,20,08,05,8.70
2016,05,20,08,06,8.70
2016,05,20,08,07,8.70
2016,05,20,08,08,8.70
2016,05,20,08,09,8.70
2016,05,20,08,10,8.70
2016,05,20,08,11,8.80
2016,05,20,08,12,8.80
2016,05,20,08,13,8.80
2016,05,20,08,14,8.80
2016,05,20,08,15,8.80
2016,05,20,08,16,8.80
2016,05,20,08,17,8.80
2016,05,20,08,18,8.90
2016,05,20,08,19,8.90
2016,05,20,08,20,8.90
2016,05,20,08,21,9.00
2016,05,20,08,22,9.00
2016,05,20,08,23,9.10
2016,05,20,08,24,9.10
2016,05,20,08,25,9.10
2016,05,20,08,26,9.10
2016,05,20,08,27,9.10
2016,05,20,08,28,9.20
2016,05,20,08,29,9.20
2016,05,20,08,30,9.30
2016,05,20,08,31,9.30
2016,05,20,08,32,9.40
2016,05,20,08,33,9.40
2016,05,20,08,34,9.50
2016,05,20,08,35,9.60
2016,05,20,08,36,9.70
2016,05,20,08,37,9.80
2016,05,20,08,38,9.90
2016,05,20,08,39,10.00
2016,05,20,08,40,10.10
2016,05,20,08,41,10.20
2016,05,20,08,42,10.30
2016,05,20,08,43,10.50
2016,05,20,08,44,10.60
2016,05,20,08,45,10.80
2016,05,20,08,46,10.90
2016,05,20,08,47,11.00
2016,05,20,08,48,11.10
2016,05,20,08,49,11.20
2016,05,20,08,50,11.20
2016,05,20,08,51,11.30
2016,05,20,08,52,11.30
2016,05,20,08,53,11.30
2016,05,20,08,54,11.30
2016,05,20,08,55,11.40
2016,05,20,08,56,11.40
2016,05,20,08,57,11.30
2016,05,20,08,58,11.30
2016,05,20,08,59,11.30
2016,05,20,09,00,11.30
2016,05,20,09,01,11.20
2016,05,20,09,02,11.20
2016,05,20,09,03,11.20
2016,05,20,09,04,11.10
2016,05,20,09,05,11.10
2016,05,20,09,06,11.10
2016,05,20,09,07,11.10
2016,05,20,09,08,11.10
2016,05,20,09,09,11.10
2016,05,20,09,10,11.20
2016,05,20,09,11,11.20
2016,05,20,09,12,11.20
2016,05,20,09,13,11.30
2016,05,20,09,14,11.30
2016,05,20,09,15,11.30
2016,05,20,09,16,11.30
2016,05,20,09,17,11.40
2016,05,20,09,18,11.40
2016,05,20,09,19,11.40
2016,05,20,09,20,11.40
2016,05,20,09,21,11.50
2016,05,20,09,22,11.50
2016,05,20,09,23,11.60
2016,05,20,09,24,11.60
2016,05,20,09,25,11.60
2016,05,20,09,26,11.70
2016,05,20,09,27,11.70
2016,05,20,09,28,11.80
2016,05,20,09,29,11.80
2016,05,20,09,30,11.90
2016,05,20,09,31,12.00
2016,05,20,09,32,12.10
2016,05,20,09,33,12.20
2016,05,20,09,34,12.20
2016,05,20,09,35,12.20
2016,05,20,09,36,12.20
2016,05,20,09,37,12.30
2016,05,20,09,38,12.30
2016,05,20,09,39,12.40
2016,05,20,09,40,12.40
2016,05,20,09,41,12.50
2016,05,20,09,42,12.60
2016,05,20,09,43,12.60
2016,05,20,09,44,12.70
2016,05,20,09,45,12.80
2016,05,20,09,46,12.90
2016,05,20,09,47,13.00
2016,05,20,09,48,13.10
2016,05,20,09,49,13.20
2016,05,20,09,50,13.30
2016,05,20,09,51,13.30
2016,05,20,09,52,13.40
2016,05,20,09,53,13.60
2016,05,20,09,54,13.70
2016,05,20,09,55,13.80
2016,05,20,09,56,13.80
2016,05,20,09,57,13.80
2016,05,20,09,58,13.90
2016,05,20,09,59,13.90
2016,05,20,10,00,13.90
2016,05,20,10,01,13.90
2016,05,20,10,02,14.00
2016,05,20,10,03,14.10
2016,05,20,10,04,14.10
2016,05,20,10,05,14.20
2016,05,20,10,06,14.30
2016,05,20,10,07,14.40
2016,05,20,10,08,14.60
2016,05,20,10,09,14.80
2016,05,20,10,10,14.90
2016,05,20,10,11,15.10
2016,05,20,10,12,15.20
2016,05,20,10,13,15.30
2016,05,20,10,14,15.40
2016,05,20,10,15,15.60
2016,05,20,10,16,15.70
2016,05,20,10,17,15.80
2016,05,20,10,18,15.90
2016,05,20,10,19,15.90
2016,05,20,10,20,15.90
2016,05,20,10,21,15.90
2016,05,20,10,22,15.90
2016,05,20,10,23,15.80
2016,05,20,10,24,15.70
2016,05,20,10,25,15.70
2016,05,20,10,26,15.70
2016,05,20,10,27,15.60
2016,05,20,10,28,15.60
2016,05,20,10,29,15.60
2016,05,20,10,30,15.60
2016,05,20,10,31,15.60
2016,05,20,10,32,15.60
2016,05,20,10,33,15.60
2016,05,20,10,34,15.70
2016,05,20,10,35,15.70
2016,05,20,10,36,15.70
2016,05,20,10,37,15.80
2016,05,20,10,38,15.90
2016,05,20,10,39,15.90
2016,05,20,10,40,16.00
2016,05,20,10,41,16.10
2016,05,20,10,42,16.20
2016,05,20,10,43,16.30
2016,05,20,10,44,16.40
2016,05,20,10,45,16.40
2016,05,20,10,46,16.40
2016,05,20,10,47,16.40
2016,05,20,10,48,16.40
2016,05,20,10,49,16.40
2016,05,20,10,50,16.30
2016,05,20,10,51,16.30
2016,05,20,10,52,16.30
2016,05,20,10,53,16.40
2016,05,20,10,54,16.50
2016,05,20,10,55,16.60
2016,05,20,10,56,16.60
2016,05,20,10,57,16.70
2016,05,20,10,58,16.60
2016,05,20,10,59,16.50
2016,05,20,11,00,16.50
2016,05,20,11,01,16.40
2016,05,20,11,02,16.40
2016,05,20,11,03,16.30
2016,05,20,11,04,16.30
2016,05,20,11,05,16.30
2016,05,20,11,06,16.20
2016,05,20,11,07,16.10
2016,05,20,11,08,16.10
2016,05,20,11,09,16.00
2016,05,20,11,10,15.90
2016,05,20,11,11,15.90
2016,05,20,11,12,15.90
2016,05,20,11,13,15.80
2016,05,20,11,14,15.80
2016,05,20,11,15,15.80
2016,05,20,11,16,15.80
2016,05,20,11,17,15.80
2016,05,20,11,18,15.80
2016,05,20,11,19,15.90
2016,05,20,11,20,15.90
2016,05,20,11,21,15.90
2016,05,20,11,22,15.90
2016,05,20,11,23,16.00
2016,05,20,11,24,16.00
2016,05,20,11,25,16.10
2016,05,20,11,26,16.10
2016,05,20,11,27,16.20
2016,05,20,11,28,16.20
2016,05,20,11,29,16.30
2016,05,20,11,30,16.30
2016,05,20,11,31,16.40
2016,05,20,11,32,16.40
2016,05,20,11,33,16.50
2016,05,20,11,34,16.50
2016,05,20,11,35,16.60
2016,05,20,11,36,16.60
2016,05,20,11,37,16.70
2016,05,20,11,38,16.70
2016,05,20,11,39,16.70
2016,05,20,11,40,16.80
2016,05,20,11,41,16.80
2016,05,20,11,42,16.90
2016,05,20,11,43,17.00
2016,05,20,11,44,17.00
2016,05,20,11,45,17.10
2016,05,20,11,46,17.10
2016,05,20,11,47,17.10
2016,05,20,11,48,17.10
2016,05,20,11,49,17.10
2016,05,20,11,50,17.10
2016,05,20,11,51,17.20
2016,05,20,11,52,17.20
2016,05,20,11,53,17.30
2016,05,20,11,54,17.30
2016,05,20,11,55,17.40
2016,05,20,11,56,17.40
2016,05,20,11,57,17.50
2016,05,20,11,58,17.60
2016,05,20,11,59,17.60
2016,05,20,12,00,17.70
2016,05,20,12,01,17.70
2016,05,20,12,02,17.70
2016,05,20,12,03,17.80
2016,05,20,12,04,17.80
2016,05,20,12,05,17.80
2016,05,20,12,06,17.90
2016,05,20,12,07,17.90
2016,05,20,12,08,17.90
2016,05,20,12,09,17.90
2016,05,20,12,10,17.90
2016,05,20,12,11,17.90
2016,05,20,12,12,17.90
2016,05,20,12,13,17.90
2016,05,20,12,14,17.90
2016,05,20,12,15,17.80
2016,05,20,12,16,17.90
2016,05,20,12,17,17.90
2016,05,20,12,18,17.90
2016,05,20,12,19,18.00
2016,05,20,12,20,18.00
2016,05,20,12,21,18.00
2016,05,20,12,22,18.10
2016,05,20,12,23,18.10
2016,05,20,12,24,18.00
2016,05,20,12,25,18.00
2016,05,20,12,26,18.00
2016,05,20,12,27,18.00
2016,05,20,12,28,18.00
2016,05,20,12,29,18.00
2016,05,20,12,30,18.00
2016,05,20,12,31,18.10
2016,05,20,12,32,18.10
2016,05,20,12,33,18.20
2016,05,20,12,34,18.20
2016,05,20,12,35,18.30
2016,05,20,12,36,18.30
2016,05,20,12,37,18.40
2016,05,20,12,38,18.40
2016,05,20,12,39,18.40
2016,05,20,12,40,18.50
2016,05,20,12,41,18.60
2016,05,20,12,42,18.70
2016,05,20,12,43,18.90
2016,05,20,12,44,19.00
2016,05,20,12,45,19.10
2016,05,20,12,46,19.20
2016,05,20,12,47,19.30
2016,05,20,12,48,19.40
2016,05,20,12,49,19.40
2016,05,20,12,50,19.40
2016,05,20,12,51,19.40
2016,05,20,12,52,19.40
2016,05,20,12,53,19.50
2016,05,20,12,54,19.60
2016,05,20,12,55,19.70
2016,05,20,12,56,19.70
2016,05,20,12,57,19.70
2016,05,20,12,58,19.60
2016,05,20,12,59,19.50
2016,05,20,13,00,19.50
2016,05,20,13,01,19.50
2016,05,20,13,02,19.60
2016,05,20,13,03,19.60
2016,05,20,13,04,19.60
2016,05,20,13,05,19.50
2016,05,20,13,06,19.60
2016,05,20,13,07,19.70
2016,05,20,13,08,19.80
2016,05,20,13,09,19.90
2016,05,20,13,10,19.90
2016,05,20,13,11,19.90
2016,05,20,13,12,19.80
2016,05,20,13,13,19.80
2016,05,20,13,14,19.70
2016,05,20,13,15,19.50
2016,05,20,13,16,19.40
2016,05,20,13,17,19.30
2016,05,20,13,18,19.20
2016,05,20,13,19,19.20
2016,05,20,13,20,19.10
2016,05,20,13,21,19.10
2016,05,20,13,22,19.10
2016,05,20,13,23,19.10
2016,05,20,13,24,19.10
2016,05,20,13,25,19.20
2016,05,20,13,26,19.20
2016,05,20,13,27,19.30
2016,05,20,13,28,19.40
2016,05,20,13,29,19.50
2016,05,20,13,30,19.50
2016,05,20,13,31,19.60
2016,05,20,13,32,19.60
2016,05,20,13,33,19.70
2016,05,20,13,34,19.70
2016,05,20,13,35,19.80
2016,05,20,13,36,20.00
2016,05,20,13,37,20.00
2016,05,20,13,38,20.00
2016,05,20,13,39,19.90
2016,05,20,13,40,19.90
2016,05,20,13,41,19.80
2016,05,20,13,42,19.80
2016,05,20,13,43,19.70
2016,05,20,13,44,19.70
2016,05,20,13,45,19.70
2016,05,20,13,46,19.60
2016,05,20,13,47,19.60
2016,05,20,13,48,19.60
2016,05,20,13,49,19.60
2016,05,20,13,50,19.70
2016,05,20,13,51,19.80
2016,05,20,13,52,19.90
2016,05,20,13,53,19.90
2016,05,20,13,54,19.90
2016,05,20,13,55,19.80
2016,05,20,13,56,19.80
2016,05,20,13,57,19.80
2016,05,20,13,58,19.90
2016,05,20,13,59,19.90
2016,05,20,14,00,19.80
2016,05,20,14,01,19.90
2016,05,20,14,02,19.90
2016,05,20,14,03,19.90
2016,05,20,14,04,19.90
2016,05,20,14,05,19.90
2016,05,20,14,06,19.80
2016,05,20,14,07,19.80
2016,05,20,14,08,19.90
2016,05,20,14,09,19.90
2016,05,20,14,10,20.00
2016,05,20,14,11,20.10
2016,05,20,14,12,20.20
2016,05,20,14,13,20.30
2016,05,20,14,14,20.30
2016,05,20,14,15,20.30
2016,05,20,14,16,20.30
2016,05,20,14,17,20.30
2016,05,20,14,18,20.20
2016,05,20,14,19,20.10
2016,05,20,14,20,20.10
2016,05,20,14,21,20.20
2016,05,20,14,22,20.20
2016,05,20,14,23,20.20
2016,05,20,14,24,20.10
2016,05,20,14,25,20.00
2016,05,20,14,26,20.00
2016,05,20,14,27,20.00
2016,05,20,14,28,19.90
2016,05,20,14,29,19.80
2016,05,20,14,30,19.80
2016,05,20,14,31,19.70
2016,05,20,14,32,19.70
2016,05,20,14,33,19.70
2016,05,20,14,34,19.70
2016,05,20,14,35,19.70
2016,05,20,14,36,19.70
2016,05,20,14,37,19.70
2016,05,20,14,38,19.80
2016,05,20,14,39,19.80
2016,05,20,14,40,19.90
2016,05,20,14,41,19.90
2016,05,20,14,42,20.00
2016,05,20,14,43,20.10
2016,05,20,14,44,20.20
2016,05,20,14,45,20.30
2016,05,20,14,46,20.30
2016,05,20,14,47,20.40
2016,05,20,14,48,20.40
2016,05,20,14,49,20.40
2016,05,20,14,50,20.30
2016,05,20,14,51,20.30
2016,05,20,14,52,20.20
2016,05,20,14,53,20.10
2016,05,20,14,54,20.00
2016,05,20,14,55,19.90
2016,05,20,14,56,19.80
2016,05,20,14,57,19.80
2016,05,20,14,58,19.80
2016,05,20,14,59,19.90
2016,05,20,15,00,19.90
2016,05,20,15,01,19.90
2016,05,20,15,02,20.00
2016,05,20,15,03,20.00
2016,05,20,15,04,20.10
2016,05,20,15,05,20.10
2016,05,20,15,06,20.20
2016,05,20,15,07,20.30
2016,05,20,15,08,20.40
2016,05,20,15,09,20.50
2016,05,20,15,10,20.50
2016,05,20,15,11,20.50
2016,05,20,15,12,20.50
2016,05,20,15,13,20.50
2016,05,20,15,14,20.40
2016,05,20,15,15,20.40
2016,05,20,15,16,20.30
2016,05,20,15,17,20.30
2016,05,20,15,18,20.30
2016,05,20,15,19,20.40
2016,05,20,15,20,20.40
2016,05,20,15,21,20.40
2016,05,20,15,22,20.40
2016,05,20,15,23,20.40
2016,05,20,15,24,20.40
2016,05,20,15,25,20.40
2016,05,20,15,26,20.30
2016,05,20,15,27,20.20
2016,05,20,15,28,20.00
2016,05,20,15,29,19.90
2016,05,20,15,30,19.90
2016,05,20,15,31,19.80
2016,05,20,15,32,19.80
2016,05,20,15,33,19.80
2016,05,20,15,34,19.70
2016,05,20,15,35,19.70
2016,05,20,15,36,19.70
2016,05,20,15,37,19.70
2016,05,20,15,38,19.60
2016,05,20,15,39,19.60
2016,05,20,15,40,19.50
2016,05,20,15,41,19.50
2016,05,20,15,42,19.40
2016,05,20,15,43,19.40
2016,05,20,15,44,19.40
2016,05,20,15,45,19.40
2016,05,20,15,46,19.40
2016,05,20,15,47,19.40
2016,05,20,15,48,19.50
2016,05,20,15,49,19.50
2016,05,20,15,50,19.50
2016,05,20,15,51,19.60
2016,05,20,15,52,19.60
2016,05,20,15,53,19.60
2016,05,20,15,54,19.60
2016,05,20,15,55,19.60
2016,05,20,15,56,19.60
2016,05,20,15,57,19.60
2016,05,20,15,58,19.60
2016,05,20,15,59,19.60
2016,05,20,16,00,19.60
2016,05,20,16,01,19.70
2016,05,20,16,02,19.70
2016,05,20,16,03,19.80
2016,05,20,16,04,19.80
2016,05,20,16,05,19.90
2016,05,20,16,06,20.00
2016,05,20,16,07,20.10
2016,05,20,16,08,20.20
2016,05,20,16,09,20.20
2016,05,20,16,10,20.00
2016,05,20,16,11,19.90
2016,05,20,16,12,19.80
2016,05,20,16,13,19.70
2016,05,20,16,14,19.70
2016,05,20,16,15,19.50
2016,05,20,16,16,19.50
2016,05,20,16,17,19.40
2016,05,20,16,18,19.30
2016,05,20,16,19,19.20
2016,05,20,16,20,19.20
2016,05,20,16,21,19.20
2016,05,20,16,22,19.10
2016,05,20,16,23,19.10
2016,05,20,16,24,19.00
2016,05,20,16,25,18.90
2016,05,20,16,26,18.90
2016,05,20,16,27,18.80
2016,05,20,16,28,18.80
2016,05,20,16,29,18.80
2016,05,20,16,30,18.80
2016,05,20,16,31,18.90
2016,05,20,16,32,18.90
2016,05,20,16,33,18.90
2016,05,20,16,34,19.00
2016,05,20,16,35,19.00
2016,05,20,16,36,19.00
2016,05,20,16,37,18.90
2016,05,20,16,38,18.80
2016,05,20,16,39,18.80
2016,05,20,16,40,18.70
2016,05,20,16,41,18.70
2016,05,20,16,42,18.60
2016,05,20,16,43,18.60
2016,05,20,16,44,18.60
2016,05,20,16,45,18.70
2016,05,20,16,46,18.80
2016,05,20,16,47,18.90
2016,05,20,16,48,19.00
2016,05,20,16,49,19.10
2016,05,20,16,50,19.20
2016,05,20,16,51,19.30
2016,05,20,16,52,19.40
2016,05,20,16,53,19.60
2016,05,20,16,54,19.70
2016,05,20,16,55,19.80
2016,05,20,16,56,19.80
2016,05,20,16,57,19.90
2016,05,20,16,58,19.90
2016,05,20,16,59,19.80
2016,05,20,17,00,19.70
2016,05,20,17,01,19.50
2016,05,20,17,02,19.40
2016,05,20,17,03,19.30
2016,05,20,17,04,19.30
2016,05,20,17,05,19.10
2016,05,20,17,06,19.00
2016,05,20,17,07,19.00
2016,05,20,17,08,18.80
2016,05,20,17,09,18.70
2016,05,20,17,10,18.70
2016,05,20,17,11,18.60
2016,05,20,17,12,18.50
2016,05,20,17,13,18.40
2016,05,20,17,14,18.40
2016,05,20,17,15,18.30
2016,05,20,17,16,18.30
2016,05,20,17,17,18.30
2016,05,20,17,18,18.20
2016,05,20,17,19,18.20
2016,05,20,17,20,18.20
2016,05,20,17,21,18.20
2016,05,20,17,22,18.20
2016,05,20,17,23,18.20
2016,05,20,17,24,18.20
2016,05,20,17,25,18.20
2016,05,20,17,26,18.20
2016,05,20,17,27,18.20
2016,05,20,17,28,18.20
2016,05,20,17,29,18.10
2016,05,20,17,30,18.10
2016,05,20,17,31,18.10
2016,05,20,17,32,18.00
2016,05,20,17,33,18.00
2016,05,20,17,34,17.90
2016,05,20,17,35,17.90
2016,05,20,17,36,17.90
2016,05,20,17,37,17.90
2016,05,20,17,38,17.90
2016,05,20,17,39,17.90
2016,05,20,17,40,17.90
2016,05,20,17,41,17.90
2016,05,20,17,42,17.90